Commit Graph

305 Commits

Author SHA1 Message Date
David Rose dfb9d0e56d refinement for __STDC__ 2002-09-26 22:49:14 +00:00
Joe Shochet bb33020f89 interrogate should look in /usr/include 2002-09-26 21:42:22 +00:00
David Rose bda1e63b8e add OpenSSL to build rules 2002-09-24 19:54:21 +00:00
David Rose b961f0192e fix clean rule 2002-09-16 23:44:02 +00:00
David Rose 9f3838fd5e make install implies make all 2002-08-27 18:47:59 +00:00
David Rose 581af369ef ipc -> threads 2002-08-12 17:31:02 +00:00
David Rose db7b164ced raise /Zm for new code 2002-07-12 16:17:42 +00:00
cxgeorge 698068a34b undo accidental change 2002-07-08 03:39:38 +00:00
cxgeorge 612b2011a0 UNPAL_SOURCES_NC changes 2002-07-08 03:39:00 +00:00
cxgeorge ff8953b16e rule for uncompressed anims 2002-07-08 02:19:16 +00:00
David Rose d54c9363aa make clean should also remove igate files 2002-06-26 17:34:30 +00:00
David Rose 618490076e new UNIX_SYS_LIBS rule 2002-06-13 20:48:30 +00:00
David Rose bf55e9fb75 put pdb's in odir 2002-06-13 20:38:54 +00:00
David Rose 282e0ce8d7 m->c reversal for unix 2002-06-13 18:21:43 +00:00
David Rose c27920c40f fix metalibs for unix 2002-06-06 16:50:49 +00:00
David Rose 39e068ae58 fix dependencies for generated composite files 2002-06-06 00:12:33 +00:00
David Rose 692a1bcf28 update unix build 2002-06-05 23:29:23 +00:00
David Rose ae6288a165 replace st_dir with ODIR, other cleanup 2002-06-05 22:39:50 +00:00
David Rose 5de192e871 remove old PCH stuff 2002-06-05 21:30:04 +00:00
David Rose 2acf89afeb generate composite.cxx files into odir 2002-06-05 18:51:24 +00:00
David Rose 5bbb137059 oops, rc compile fart 2002-06-05 18:25:56 +00:00
David Rose 1756e5e978 pregenerate install dirs 2002-06-05 18:16:01 +00:00
David Rose 9ac6270216 explicitly name each .obj file to prevent conflicts when one file appears on multiple targets 2002-06-05 18:06:15 +00:00
David Rose 339eedf8db minor yxx/lxx adjustment 2002-06-04 00:02:35 +00:00
David Rose c9114127b1 fix bison rules 2002-06-03 21:55:13 +00:00
David Rose 2068d6f1dc ppremake 1.1 changes, fix build dependency probs 2002-06-03 18:30:17 +00:00
David Rose 4f68d79261 oops, dropped WIN_SYS_LIBS 2002-05-29 19:00:31 +00:00
David Rose d201ed16f9 clean up extra USE_GL, USE_DX stuff 2002-05-29 18:04:08 +00:00
David Rose 304264d481 replace USE_GL, USE_DX, etc. with USE_PACKAGES 2002-05-29 18:00:20 +00:00
David Rose 945f7dfe92 eliminate IF_*_SOURCES, etc. 2002-05-29 17:13:50 +00:00
David Rose 3868e3e94d eliminate DIRECTORY_IF_* and TARGET_IF_* for BUILD_DIRECTORY and BUILD_TARGET 2002-05-29 16:46:58 +00:00
David Rose aa150560f3 oops, wrong dependency in bison rules 2002-05-24 23:22:05 +00:00
David Rose 564c893286 attempted fix for bison dependencies. maybe broken still. 2002-05-24 22:58:25 +00:00
David Rose 793a1a536e clean-prebuild-bison 2002-05-24 19:48:27 +00:00
David Rose 621ad03421 define prebuild-bison 2002-05-24 19:30:16 +00:00
David Rose efee3f595b prepare for Cygwin ppremake 2002-05-24 16:49:32 +00:00
David Rose add4e82238 fix probs with new ppremake 2002-05-23 23:35:44 +00:00
David Rose 96aa6712a3 add Cygwin platform 2002-05-23 02:22:30 +00:00
Dave Schuyler 7cbfc0c2ce changed _audio to _rad_mss 2002-05-21 23:09:56 +00:00
cxgeorge 7ba582a2e6 remove intel inc dirs 2002-05-15 20:41:23 +00:00
David Rose 5ae0a437a2 oops, broke dependencies 2002-05-14 18:51:22 +00:00
David Rose 28a83773d6 remove tiff library 2002-05-02 16:18:24 +00:00
David Rose 55f269299d add maya_egg rules 2002-04-15 23:33:43 +00:00
David Rose 5146588a8d VC7 allocator support, and *_ALLOCATOR cleanup 2002-04-12 19:14:47 +00:00
David Rose 678d14ce4b support maya on windows 2002-04-11 23:52:05 +00:00
David Rose 51b8232d16 don't generate build rules if directory is excluded 2002-04-11 17:25:56 +00:00
David Rose ec96e3d6b3 directory_if_unix, etc. 2002-04-11 17:19:44 +00:00
cxgeorge 3695b0fb83 add /GS back 2002-04-04 22:33:00 +00:00
cxgeorge 64ad508937 oops 2002-03-30 00:53:14 +00:00
cxgeorge 83f0e92d42 fix GEN_BUILDDATE 2002-03-29 01:37:27 +00:00
cxgeorge 5d52a23afb only use dllbase.txt if DTOOL_INSTALL is defined 2002-03-29 01:30:55 +00:00
cxgeorge 61cb955c9b add jpeg2000 2002-03-28 06:15:17 +00:00
David Rose 151820f386 misinstalled egg files 2002-03-18 21:33:06 +00:00
Dave Schuyler 87fe850e42 chromium changes 2002-03-16 02:07:07 +00:00
cxgeorge ac7f69aff5 update intel flags 2002-03-09 03:12:37 +00:00
cxgeorge 1c46006c04 enable /QIfist only if FAST_FLT_TO_INT defined 2002-03-06 21:52:40 +00:00
cxgeorge fd0d2a2037 add ansi forscope compliance 2002-03-04 21:35:03 +00:00
cxgeorge b6a28dc529 oops 2002-03-01 03:01:58 +00:00
cxgeorge 84a02108d6 fix problem w/rc paths if machine doesnt have vc6 2002-03-01 02:53:48 +00:00
David Rose 3762f0515d allow HAVE_INTERROGATE to be redefined in Config.pp to disable interrogate 2002-02-25 18:36:41 +00:00
David Rose 44c3861f11 comment 2002-02-23 19:40:53 +00:00
David Rose 53c0704d7a TEXATTRIB_DIR 2002-02-23 19:34:31 +00:00
David Rose 7b324306b2 reldir instead of path 2002-02-23 19:04:01 +00:00
cxgeorge 456d839718 reduce opt1 vc7 flags 2002-02-19 22:55:18 +00:00
David Rose 4e64da0311 rename .in files for debug builds 2002-02-19 16:58:39 +00:00
cxgeorge a5b370235b speed up dbg builds 2002-02-19 02:28:45 +00:00
cxgeorge 233ba9931f add no_cross_obj flag 2002-02-18 06:20:56 +00:00
cxgeorge b6d06a224e add ss_lib_target 2002-02-09 01:57:45 +00:00
David Rose 6c1a346f86 add stinterrogate 2002-02-09 00:38:32 +00:00
David Rose c58e78428e add freetype2 to external library list 2002-02-08 23:32:26 +00:00
David Rose cdc73110ad trivial comment change 2002-02-08 01:00:17 +00:00
cxgeorge 04e5405af1 further refine prev chng 2002-02-07 21:44:08 +00:00
cxgeorge 72faa579a1 oops 2002-02-07 21:08:48 +00:00
cxgeorge 859a595bbf fix opt4 vc7 thingie 2002-02-07 21:02:26 +00:00
cxgeorge 5508773eee adjust link options 4 vc7 2002-02-07 01:14:20 +00:00
cxgeorge 0506954928 add JPEG combined srcs 2002-02-06 23:35:08 +00:00
David Rose 11816b3438 correct comments 2002-02-06 19:39:42 +00:00
cxgeorge fc9504ee18 vc7 chng 2002-01-25 00:57:51 +00:00
cxgeorge e56cd6aabd TARGET_LIBS 2001-12-06 22:37:50 +00:00
cxgeorge 88714cf317 update intel settings 2001-11-21 00:34:55 +00:00
cxgeorge afc63b5844 change intel build 2001-11-20 02:49:30 +00:00
cxgeorge 352c897f0f add QIfist to avoid round-mode check. watch out for double-float rounding problems 2001-11-13 22:59:52 +00:00
cxgeorge 0988fc735d enable UNKNOWN_ALLOCATOR for Opt4 to save spc 2001-11-09 03:25:54 +00:00
cxgeorge ed7652ee3d add msvc7 stuff 2001-11-06 00:29:58 +00:00
cxgeorge ac083bb502 updates for msvc7 2001-11-06 00:20:08 +00:00
David Rose cedd6cc174 oops 2001-11-04 19:47:01 +00:00
David Rose b2c21cab7f allow directory prefix in sources for install_egg 2001-11-03 01:51:12 +00:00
cxgeorge e19f365f19 adjust 2-proc builds 2001-10-30 01:37:20 +00:00
cxgeorge ec3d761251 fix for intel cl 2001-10-15 03:56:30 +00:00
David Rose d3aaf82193 make the platform sdk thing pretty 2001-10-10 22:15:23 +00:00
cxgeorge f85ede6104 interrogate barfs on platform-sdk dir, hack around by filtering out that dir 2001-10-10 21:06:36 +00:00
cxgeorge 846980feaa include platform sdk dirs in all win32 builds 2001-10-10 03:09:25 +00:00
Mark Mine 3b455c0944 allow uppercase LWO extension 2001-09-21 21:30:38 +00:00
David Rose da15f3076a don't touch *_composite.cxx each time ppremake is run 2001-09-07 23:55:35 +00:00
cxgeorge 36aa3f19dc new cygwin cygwinifies TEMP 2001-08-29 02:51:25 +00:00
cxgeorge d478348a71 allow conditional pstats 2001-08-20 20:48:14 +00:00
cxgeorge 94b4150e11 fix multi-proc nmake case to use new opt 2001-08-09 01:22:22 +00:00
cxgeorge 333c645f06 optimize single processor build 2001-08-08 22:51:49 +00:00
David Rose 5c5f2a6b22 redo-pal -> undo-pal 2001-07-30 21:23:43 +00:00
Dave Schuyler 71735a5ff4 changes for new audio system 2001-07-13 00:11:59 +00:00